Change the Weather History Date:

Tuesday, January 15, 2013

  Actual Average Record
Temperature  
Mean Temperature 71 °F -  
Max Temperature 79 °F 63 °F 51 °F (2015)
Min Temperature 63 °F 44 °F 46 °F (2015)
Cooling Degree Days 6    
Growing Degree Days 21 (Base 50)    
Moisture  
Dew Point 60 °F    
Average Humidity 73    
Maximum Humidity 90    
Minimum Humidity 45    
Precipitation  
Precipitation 0.00 in - - ()
Sea Level Pressure  
Sea Level Pressure 30.11 in    
Wind  
Wind Speed 5 mph (SSE)    
Max Wind Speed 10 mph    
Max Gust Speed -    
Visibility 10 miles    
Events      
Averages and records for this station are not official NWS values.
T = Trace of Precipitation, MM = Missing Value Source: NWS Daily Summary

Daily Weather History Graph

Daily Weather History Graph

Search for Another Location

Airport or City:

Trip Planner

Search our weather history database for the weather conditions in past years. The results will help you decide how hot, cold, wet, or windy it might be!

Date:

Astronomy

Jan. 15, 2013 Rise Set
Actual Time 7:23 AM EST 5:48 PM EST
Civil Twilight 6:57 AM EST 6:14 PM EST
Nautical Twilight 6:28 AM EST 6:44 PM EST
Astronomical Twilight 5:59 AM EST 7:13 PM EST
Moon 9:50 AM EST (1/15) 10:13 PM EST (1/15)
Length of Visible Light 11h 17m
Length of Day
10h 25m
Waxing Crescent, 19% of the Moon is Illuminated
Jan 15
Waxing Crescent
Jan 18
First Quarter
Jan 26
Full
Feb 3
Last Quarter
Feb 10
New

Hourly Weather History & Observations

Time (EST) Temp. Dew Point Humidity Pressure Visibility Wind Dir Wind Speed Gust Speed Precip Events Conditions
12:53 AM 66.9 °F 60.1 °F 79% 30.17 in 10.0 mi Calm Calm - N/A   Scattered Clouds
1:53 AM 64.0 °F 60.1 °F 87% 30.16 in 10.0 mi SE 3.5 mph - N/A   Scattered Clouds
2:53 AM 63.0 °F 60.1 °F 90% 30.15 in 10.0 mi SE 4.6 mph - N/A   Scattered Clouds
3:53 AM 66.0 °F 61.0 °F 84% 30.13 in 10.0 mi SSE 5.8 mph - N/A   Scattered Clouds
4:53 AM 64.9 °F 61.0 °F 87% 30.12 in 10.0 mi SSE 4.6 mph - N/A   Scattered Clouds
5:53 AM 64.9 °F 61.0 °F 87% 30.12 in 10.0 mi South 4.6 mph - N/A   Scattered Clouds
6:53 AM 64.9 °F 61.0 °F 87% 30.13 in 10.0 mi South 8.1 mph - N/A   Scattered Clouds
7:53 AM 64.9 °F 62.1 °F 90% 30.15 in 10.0 mi South 6.9 mph - N/A   Scattered Clouds
8:53 AM 66.0 °F 62.1 °F 87% 30.17 in 10.0 mi South 5.8 mph - N/A   Mostly Cloudy
9:53 AM 69.1 °F 63.0 °F 81% 30.17 in 10.0 mi South 9.2 mph - N/A   Mostly Cloudy
10:53 AM 71.1 °F 62.1 °F 73% 30.15 in 10.0 mi South 9.2 mph - N/A   Mostly Cloudy
11:53 AM 73.9 °F 62.1 °F 66% 30.12 in 10.0 mi SSE 9.2 mph - N/A   Mostly Cloudy
12:53 PM 75.9 °F 59.0 °F 56% 30.10 in 10.0 mi South 9.2 mph - N/A   Mostly Cloudy
1:53 PM 77.0 °F 57.9 °F 52% 30.07 in 10.0 mi South 8.1 mph - N/A   Mostly Cloudy
2:53 PM 78.1 °F 57.0 °F 48% 30.06 in 10.0 mi South 8.1 mph - N/A   Mostly Cloudy
3:53 PM 79.0 °F 55.9 °F 45% 30.06 in 10.0 mi South 6.9 mph - N/A   Mostly Cloudy
4:53 PM 78.1 °F 55.9 °F 46% 30.07 in 10.0 mi SSE 8.1 mph - N/A   Mostly Cloudy
5:53 PM 73.0 °F 61.0 °F 66% 30.07 in 10.0 mi SE 10.4 mph - N/A   Mostly Cloudy
6:53 PM 72.0 °F 60.1 °F 66% 30.08 in 10.0 mi SE 6.9 mph - N/A   Scattered Clouds
7:53 PM 71.1 °F 60.1 °F 68% 30.08 in 10.0 mi SSE 8.1 mph - N/A   Scattered Clouds
8:53 PM 70.0 °F 61.0 °F 73% 30.08 in 10.0 mi SSE 6.9 mph - N/A   Mostly Cloudy
9:53 PM 70.0 °F 61.0 °F 73% 30.08 in 10.0 mi South 6.9 mph - N/A   Mostly Cloudy
10:53 PM 69.1 °F 62.1 °F 78% 30.08 in 10.0 mi South 6.9 mph - N/A   Mostly Cloudy
11:53 PM 69.1 °F 62.1 °F 78% 30.07 in 10.0 mi South 6.9 mph - N/A   Mostly Cloudy